[[{"header":{"parameterUnit":"m.s-1","parameterCategory":2,"la1":30.2991,"la2":30.254,"lo1":-89.0895,"lo2":-89.0444,"dy":0.0017,"dx":0.0017,"nx":28,"ny":28,"refTime":"2026-02-01T03:00:00:Z","depth":"0","parameterNumber":2,"parameterNumberName":"U-component_of_CURRENTS"},"data":[0,0,0,0,0,0,0,0,0,0,0,0,0,0,0,0,0,0,0,0,0,0,0,0,0,0,0,0,0,0,0,0,0,0,0,0,0,0,0,0,0,0,0,0,0,0,0,0,0,0,0,0,0,0,0,0,0,0,0.2773,0.2774,0,0.283,0.2831,0.2831,0.2867,0.2867,0.2868,0.2868,0.2833,0.2832,0.283,0,0,0,0,0,0,0,0,0,0,0,0,0,0.2809,0.2807,0.2773,0.2774,0.2775,0.283,0.2831,0.2831,0.2867,0.2867,0.2868,0.2869,0.2833,0.2832,0.283,0,0,0,0,0,0,0,0,0,0,0,0,0,0.2819,0.2806,0.2773,0.2801,0.2805,0.283,0.2831,0.2831,0.2867,0.2867,0.2868,0.2869,0.2834,0.2832,0.283,0.2804,0,0,0.2824,0.2823,0,0,0,0,0,0,0,0,0.2819,0.2818,0.2796,0.28,0.2803,0.2844,0.2831,0.2819,0.2867,0.284,0.2868,0.2869,0.2829,0.2828,0.2835,0.2802,0.2801,0.2823,0.2822,0.2821,0.2821,0,0,0,0,0,0,0,0.2818,0.2816,0.2793,0.2797,0.2802,0.2851,0.2851,0.2829,0.2827,0.2843,0.2846,0.2856,0.283,0.2837,0.2834,0.28,0.2824,0.2822,0.282,0.282,0.2674,0.2672,0,0,0,0,0,0,0.2809,0.2814,0.2791,0.2795,0.2816,0.2849,0.285,0.2828,0.2829,0.2831,0.2856,0.2858,0.284,0.2836,0.2833,0.2775,0.2821,0.2819,0.2818,0.2677,0.2674,0.2671,0,0,0,0,0,0,0.2808,0.2805,0.2789,0.2811,0.2812,0.2847,0.2823,0.2829,0.2828,0.2841,0.2841,0.2848,0.284,0.2835,0.2836,0.2775,0.2819,0.2817,0.268,0.2676,0.2672,0.2677,0,0,0,0,0,0,0.2809,0.2803,0.2781,0.2808,0.2811,0.2812,0.2823,0.283,0.2835,0.2838,0.2833,0.2832,0.284,0.2839,0.2834,0.2773,0.2815,0.2683,0.2678,0.2673,0.268,0.2674,0.2668,0,0,0,0,0,0.2809,0.2774,0.2778,0.2776,0.2778,0.2813,0.2819,0.2846,0.2834,0.2842,0.2849,0.2831,0.2801,0.2838,0.2832,0.2768,0.2686,0.268,0.2674,0.2683,0.2675,0.2668,0,0,0,0,0,0,0.2754,0.2776,0.2781,0.2746,0.2783,0.282,0.2821,0.2832,0.2842,0.2837,0.2836,0.2837,0.2799,0.2782,0.2823,0.2704,0.2722,0.2715,0.2731,0.2723,0.2717,0.2699,0.2813,0,0,0,0,0,0.2735,0.2716,0.276,0.2724,0.2747,0.2777,0.2789,0.2813,0.283,0.2834,0.2833,0.2805,0.2766,0.2752,0.2729,0.2688,0.2616,0.2625,0.2619,0.2615,0.2591,0.2468,0.2449,0.2651,0.2651,0.2651,0,0,0.2694,0.2706,0.2689,0.2713,0.2736,0.2766,0.2785,0.2804,0.2806,0.2824,0.2813,0.2794,0.2752,0.2713,0.2687,0.2696,0.2512,0.2607,0.2604,0.2582,0.246,0.244,0.2423,0.2647,0.2648,0.2649,0,0,0.2646,0.2625,0.2628,0.2668,0.272,0.2738,0.274,0.2786,0.2786,0.2798,0.2777,0.2736,0.2711,0.2661,0.2628,0.2564,0.2488,0.253,0.2487,0.2369,0.2351,0.2335,0.2196,0.2168,0.2524,0.2524,0.2524,0,0.2601,0.261,0.2632,0.2673,0.2694,0.2721,0.2747,0.2748,0.2782,0.2747,0.2796,0.2691,0.2676,0.2564,0.2552,0.2548,0.2464,0.2531,0.2363,0.2345,0.2329,0.219,0.2159,0.2523,0.2523,0.2524,0.2524,0,0.2605,0.2608,0.2612,0.2659,0.2679,0.2703,0.2731,0.2717,0.2716,0.2706,0.263,0.2631,0.2554,0.253,0.2536,0.2381,0.2351,0.2378,0.2391,0.2309,0.2167,0.2135,0.2523,0.2523,0.2523,0.2523,0,0,0.2516,0.2599,0.2602,0.2627,0.2682,0.2694,0.2668,0.2644,0.2574,0.2601,0.2517,0.2468,0.2444,0.2402,0.2378,0.2291,0.2117,0.2287,0.2281,0.2164,0.1821,0.1752,0.1709,0.2118,0.2113,0.2109,0.1762,0,0.2519,0.2575,0.2615,0.2634,0.2665,0.2671,0.2633,0.2597,0.2555,0.2479,0.2433,0.236,0.2397,0.2358,0.2273,0.2154,0.2033,0.2206,0.1903,0.1892,0.1855,0.167,0.162,0.1302,0.173,0.1724,0.172,0,0.2535,0.2567,0.2602,0.2614,0.2624,0.2622,0.2532,0.2514,0.2394,0.2358,0.2271,0.2237,0.2101,0.2176,0.1908,0.2014,0.1902,0.1827,0.1812,0.1721,0.1762,0.1453,0.1226,0.1249,0.1669,0.1673,0.1677,0,0.2484,0.255,0.2562,0.2585,0.2603,0.2574,0.2559,0.2454,0.2393,0.2267,0.2198,0.2057,0.1977,0.1833,0.1688,0.1776,0.1391,0.1491,0.1308,0.1301,0.1181,0.1173,0.0951,0.1272,0.1273,0.1274,0.1275,0,0.2475,0.2482,0.2538,0.2548,0.2516,0.2543,0.2448,0.2401,0.2296,0.2181,0.2133,0.2006,0.1889,0.1686,0.1584,0.1302,0.1284,0.1227,0.1183,0.1178,0.1175,0.1132,0.1173,0.1261,0.1264,0.1266,0.1268,0,0.2411,0.2461,0.2474,0.2497,0.2497,0.2469,0.2419,0.2336,0.2253,0.2104,0.2067,0.1901,0.1619,0.1459,0.1178,0.1133,0.0856,0.0817,0.0808,0.077,0.0686,0.0729,0.0357,0.0362,0.055,0.0546,0.0542,0,0.237,0.2381,0.2424,0.2419,0.243,0.2397,0.2356,0.2309,0.2223,0.2021,0.1942,0.1661,0.1398,0.0954,0.0798,0.0512,0.0591,0.037,0.0546,0.0594,0.061,0.0642,0.0682,0.0368,0.0364,0.036,0.0357,0,0.2275,0.2303,0.2317,0.2332,0.2317,0.2287,0.2238,0.2178,0.2087,0.1929,0.1674,0.1444,0.1022,0.067,0.0351,0.0241,0.0373,0.0287,0.0319,0.04,0.0427,0.0444,0.0691,0.0323,0.0326,0.0329,0.0331,0.0332,0.2168,0.2167,0.2202,0.2215,0.2216,0.218,0.2093,0.201,0.1854,0.1533,0.1428,0.096,0.0634,0.0156,0.0067,-0.0031,0.0051,0.0009,0.0032,0.0042,0.0113,0.0276,-0.01,-0.0099,-0.0099,-0.0098,-0.0097,0,0.1994,0.2044,0.2073,0.2087,0.2072,0.2095,0.1999,0.1829,0.1596,0.1264,0.0934,0.0389,0.0058,-0.0141,-0.0269,-0.0265,-0.0185,-0.0227,-0.0159,-0.0116,-0.0021,0.0051,-0.0288,-0.0288,-0.0288,-0.0288,-0.0288,-0.0288,0.1895,0.1875,0.1939,0.1927,0.1947,0.1806,0.1719,0.1447,0.1169,0.0602,0.0174,-0.0127,-0.0271,-0.0411,-0.0422,-0.0379,-0.0293,-0.0356,-0.0274,-0.0129,-0.0101,-0.0074,0.0004,-0.0339,-0.0339,-0.0352,-0.0352,-0.0352]},{"header":{"parameterUnit":"m.s-1","parameterCategory":2,"la1":30.2991,"la2":30.254,"lo1":-89.0895,"lo2":-89.0444,"dy":0.0017,"dx":0.0017,"nx":28,"ny":28,"refTime":"2026-02-01T03:00:00:Z","depth":"0","parameterNumber":3,"parameterNumberName":"V-component_of_CURRENTS"},"data":[0,0,0,0,0,0,0,0,0,0,0,0,0,0,0,0,0,0,0,0,0,0,0,0,0,0,0,0,0,0,0,0,0,0,0,0,0,0,0,0,0,0,0,0,0,0,0,0,0,0,0,0,0,0,0,0,0,0,-0.1928,-0.1927,0,-0.1911,-0.1911,-0.1911,-0.1871,-0.1869,-0.1868,-0.1867,-0.1766,-0.1764,-0.1763,0,0,0,0,0,0,0,0,0,0,0,0,0,-0.1894,-0.1896,-0.1928,-0.1927,-0.1927,-0.1911,-0.1911,-0.1911,-0.1871,-0.1869,-0.1868,-0.1867,-0.1767,-0.1765,-0.1763,0,0,0,0,0,0,0,0,0,0,0,0,0,-0.19,-0.1896,-0.1928,-0.1902,-0.1899,-0.1911,-0.1911,-0.1911,-0.1871,-0.1869,-0.1867,-0.1866,-0.1767,-0.1765,-0.1762,-0.1784,0,0,-0.1755,-0.1754,0,0,0,0,0,0,0,0,-0.19,-0.1902,-0.1906,-0.1904,-0.19,-0.1888,-0.1862,-0.1863,-0.1872,-0.1886,-0.1867,-0.1865,-0.1798,-0.1793,-0.18,-0.1779,-0.1774,-0.1755,-0.1754,-0.1753,-0.1752,0,0,0,0,0,0,0,-0.1899,-0.1902,-0.1925,-0.1906,-0.1902,-0.188,-0.188,-0.1862,-0.1853,-0.1884,-0.188,-0.1873,-0.1796,-0.1803,-0.1797,-0.1773,-0.1755,-0.1753,-0.1752,-0.1751,-0.1505,-0.1501,0,0,0,0,0,0,-0.1898,-0.1902,-0.1925,-0.1924,-0.1891,-0.1882,-0.1882,-0.1897,-0.1855,-0.1847,-0.1875,-0.1871,-0.1808,-0.18,-0.1793,-0.1695,-0.1753,-0.175,-0.1749,-0.151,-0.1504,-0.1499,0,0,0,0,0,0,-0.1898,-0.1901,-0.1926,-0.1908,-0.1909,-0.1884,-0.1902,-0.1897,-0.1899,-0.1848,-0.1838,-0.188,-0.1806,-0.1797,-0.1771,-0.1695,-0.1749,-0.1747,-0.1516,-0.1509,-0.1502,-0.1576,0,0,0,0,0,0,-0.1897,-0.1902,-0.1918,-0.1909,-0.191,-0.1944,-0.1903,-0.1898,-0.1896,-0.1891,-0.185,-0.1839,-0.1804,-0.1775,-0.1768,-0.1693,-0.1745,-0.1523,-0.1513,-0.1504,-0.158,-0.1571,-0.1564,0,0,0,0,0,-0.1897,-0.1931,-0.192,-0.1922,-0.1932,-0.1945,-0.1946,-0.1923,-0.1898,-0.1916,-0.1871,-0.184,-0.1704,-0.1773,-0.1766,-0.1687,-0.1528,-0.1516,-0.1505,-0.1583,-0.1573,-0.1565,0,0,0,0,0,0,-0.1926,-0.193,-0.1917,-0.195,-0.1949,-0.1937,-0.1954,-0.1931,-0.1915,-0.1907,-0.1849,-0.1837,-0.1769,-0.1711,-0.1788,-0.1567,-0.158,-0.1567,-0.1641,-0.1631,-0.1624,-0.1587,-0.1743,0,0,0,0,0,-0.194,-0.1964,-0.1959,-0.1983,-0.1992,-0.1974,-0.1976,-0.1962,-0.1941,-0.1933,-0.1895,-0.1807,-0.1716,-0.1671,-0.1612,-0.1543,-0.1416,-0.1451,-0.1443,-0.1438,-0.139,-0.103,-0.0986,-0.1461,-0.1461,-0.1462,0,0,-0.1955,-0.196,-0.1972,-0.199,-0.1992,-0.2009,-0.1973,-0.199,-0.197,-0.1924,-0.1898,-0.1824,-0.1697,-0.1607,-0.1559,-0.1552,-0.1275,-0.1424,-0.1422,-0.1375,-0.1013,-0.0967,-0.0925,-0.1453,-0.1455,-0.1456,0,0,-0.2004,-0.201,-0.205,-0.2058,-0.2065,-0.2046,-0.2051,-0.2044,-0.2012,-0.1991,-0.1899,-0.1759,-0.1707,-0.1538,-0.1454,-0.1353,-0.1268,-0.1336,-0.1259,-0.0912,-0.087,-0.083,-0.0801,-0.0758,-0.1306,-0.1306,-0.1306,0,-0.2019,-0.2065,-0.2061,-0.2101,-0.2097,-0.2063,-0.2089,-0.2058,-0.2031,-0.1958,-0.1986,-0.1691,-0.1632,-0.1364,-0.1345,-0.1331,-0.1235,-0.1334,-0.0903,-0.086,-0.0819,-0.0795,-0.0747,-0.1308,-0.1308,-0.1308,-0.1308,0,-0.2106,-0.2128,-0.2156,-0.2179,-0.2177,-0.2199,-0.2151,-0.212,-0.207,-0.199,-0.1769,-0.1629,-0.1415,-0.136,-0.1359,-0.1005,-0.1084,-0.0968,-0.0946,-0.0776,-0.0765,-0.0713,-0.1312,-0.1311,-0.131,-0.131,0,0,-0.2158,-0.2205,-0.2211,-0.221,-0.2216,-0.2212,-0.2168,-0.2071,-0.1959,-0.1858,-0.1623,-0.1449,-0.1315,-0.1199,-0.1081,-0.0797,-0.0536,-0.0791,-0.0772,-0.0804,0.0009,-0.0088,-0.0044,-0.0337,-0.0323,-0.0313,-0.0176,0,-0.2216,-0.2285,-0.2288,-0.2304,-0.2319,-0.2259,-0.2203,-0.2096,-0.1963,-0.1737,-0.1451,-0.1228,-0.1261,-0.1117,-0.0838,-0.0558,-0.037,-0.0599,-0.0111,-0.0102,-0.0231,0.0032,-0.0031,0.0093,-0.0124,-0.0116,-0.0109,0,-0.2296,-0.2315,-0.2361,-0.2315,-0.2315,-0.2307,-0.2139,-0.2085,-0.1772,-0.1648,-0.1328,-0.1117,-0.0717,-0.0724,-0.018,-0.0334,-0.0198,-0.001,0.0004,0.001,-0.0088,-0.0061,0.0196,0.0169,-0.0029,-0.0035,-0.0041,0,-0.231,-0.2347,-0.2367,-0.2372,-0.2332,-0.2295,-0.2251,-0.204,-0.1912,-0.1529,-0.1317,-0.0876,-0.0553,-0.0223,0.0036,-0.0024,0.062,0.0614,0.0617,0.0595,0.0698,0.0669,0.0992,0.1018,0.1018,0.1018,0.1017,0,-0.2357,-0.2362,-0.2373,-0.2383,-0.2338,-0.2313,-0.2182,-0.2073,-0.1788,-0.1516,-0.1247,-0.0866,-0.0374,0.0015,0.0163,0.0527,0.0717,0.0685,0.0735,0.064,0.0608,0.0712,0.0703,0.1022,0.1021,0.1021,0.102,0,-0.2361,-0.2392,-0.2389,-0.2365,-0.235,-0.2313,-0.2191,-0.2047,-0.1835,-0.1426,-0.1278,-0.0746,-0.0254,0.0075,0.0652,0.072,0.1065,0.1083,0.0756,0.077,0.0735,0.0722,0.1183,0.123,0.1154,0.1154,0.1154,0,-0.2363,-0.2375,-0.2372,-0.2342,-0.2332,-0.2277,-0.22,-0.2068,-0.1877,-0.1327,-0.1068,-0.0515,-0.0082,0.0558,0.0829,0.1068,0.1107,0.1094,0.1049,0.0795,0.0823,0.0819,0.0824,0.1038,0.1037,0.1036,0.1035,0,-0.2312,-0.2325,-0.2315,-0.2279,-0.2227,-0.2146,-0.202,-0.1886,-0.1608,-0.1255,-0.0688,-0.0315,0.0255,0.0634,0.0877,0.101,0.1089,0.1083,0.1084,0.1006,0.0792,0.0832,0.0621,0.1029,0.103,0.103,0.1031,0.1031,-0.2221,-0.22,-0.2184,-0.2142,-0.2097,-0.1951,-0.179,-0.1603,-0.1275,-0.0726,-0.0479,0.0011,0.0339,0.0746,0.0893,0.1002,0.1088,0.1015,0.1061,0.1105,0.1108,0.0708,0.1037,0.1038,0.1038,0.1039,0.1039,0,-0.2035,-0.2031,-0.2015,-0.193,-0.1837,-0.1836,-0.1586,-0.1362,-0.0919,-0.0623,-0.0193,0.0133,0.0433,0.0651,0.0859,0.0948,0.1004,0.0994,0.1019,0.1066,0.0955,0.0899,0.0903,0.0903,0.0903,0.0903,0.0903,0.0903,-0.1904,-0.1824,-0.1843,-0.166,-0.1602,-0.1322,-0.1126,-0.0841,-0.0618,-0.0204,-0.0011,0.0098,0.0304,0.0672,0.0864,0.0908,0.1013,0.103,0.1129,0.0998,0.1002,0.1006,0.0955,0.0971,0.0972,0.1201,0.1203,0.1204]}],[{"header":{"parameterUnit":"m.s-1","parameterCategory":2,"la1":30.2991,"la2":30.254,"lo1":-89.0895,"lo2":-89.0444,"dy":0.0017,"dx":0.0017,"nx":28,"ny":28,"refTime":"2026-02-01T03:00:00:Z","depth":"2","parameterNumber":2,"parameterNumberName":"U-component_of_CURRENTS"},"data":[0,0,0,0,0,0,0,0,0,0,0,0,0,0,0,0,0,0,0,0,0,0,0,0,0,0,0,0,0,0,0,0,0,0,0,0,0,0,0,0,0,0,0,0,0,0,0,0,0,0,0,0,0,0,0,0,0,0,-0.117,-0.1169,0,-0.1063,-0.1061,-0.106,-0.1029,-0.103,-0.1031,-0.1031,-0.0893,-0.0888,-0.0884,0,0,0,0,0,0,0,0,0,0,0,0,0,-0.1215,-0.1215,-0.117,-0.1169,-0.1168,-0.1063,-0.1061,-0.1059,-0.1029,-0.103,-0.1031,-0.1032,-0.0894,-0.0889,-0.0884,0,0,0,0,0,0,0,0,0,0,0,0,0,-0.1158,-0.1215,-0.117,-0.1142,-0.1139,-0.1063,-0.1061,-0.1059,-0.1029,-0.103,-0.1031,-0.1032,-0.0896,-0.089,-0.0883,-0.0815,0,0,-0.0862,-0.0859,0,0,0,0,0,0,0,0,-0.1161,-0.1156,-0.1147,-0.1144,-0.114,-0.1063,-0.1026,-0.0977,-0.1028,-0.1067,-0.1032,-0.1033,-0.0948,-0.0937,-0.091,-0.0809,-0.0803,-0.0862,-0.0858,-0.0855,-0.0853,0,0,0,0,0,0,0,-0.1165,-0.1159,-0.1124,-0.1146,-0.1142,-0.1089,-0.1084,-0.1016,-0.0999,-0.1064,-0.1062,-0.1055,-0.0946,-0.0917,-0.0906,-0.0801,-0.0862,-0.0856,-0.0852,-0.0849,-0.0434,-0.0428,0,0,0,0,0,0,-0.119,-0.1164,-0.1128,-0.1121,-0.1158,-0.1088,-0.1082,-0.1084,-0.1,-0.0989,-0.1054,-0.1054,-0.0927,-0.0914,-0.0901,-0.0714,-0.0855,-0.0848,-0.0844,-0.0441,-0.0433,-0.0425,0,0,0,0,0,0,-0.1192,-0.1188,-0.1132,-0.1142,-0.1132,-0.1088,-0.1089,-0.1081,-0.1041,-0.0993,-0.0982,-0.1022,-0.0928,-0.0911,-0.0808,-0.0713,-0.0845,-0.0839,-0.0449,-0.0439,-0.0429,-0.0405,0,0,0,0,0,0,-0.1194,-0.119,-0.1182,-0.1144,-0.1132,-0.1072,-0.1088,-0.1078,-0.1037,-0.1035,-0.0961,-0.0951,-0.0928,-0.0818,-0.0801,-0.0706,-0.0834,-0.0458,-0.0445,-0.0432,-0.0415,-0.0395,-0.0378,0,0,0,0,0,-0.1196,-0.1186,-0.1182,-0.1177,-0.1129,-0.107,-0.1057,-0.1028,-0.1034,-0.1,-0.0942,-0.0953,-0.072,-0.0809,-0.079,-0.0691,-0.0465,-0.0448,-0.0433,-0.0423,-0.0399,-0.0379,0,0,0,0,0,0,-0.1199,-0.1181,-0.1177,-0.1162,-0.1113,-0.1066,-0.1035,-0.1015,-0.0943,-0.094,-0.0901,-0.0883,-0.0748,-0.0703,-0.0802,-0.0515,-0.0577,-0.0557,-0.0575,-0.0552,-0.0534,-0.0589,-0.0828,0,0,0,0,0,-0.1198,-0.1189,-0.1152,-0.1136,-0.1114,-0.107,-0.1038,-0.1016,-0.0959,-0.093,-0.0874,-0.0777,-0.0664,-0.0606,-0.0515,-0.0383,-0.0475,-0.0283,-0.0265,-0.0251,-0.027,-0.0354,-0.0352,-0.0374,-0.0374,-0.0374,0,0,-0.1196,-0.1184,-0.1178,-0.1135,-0.11,-0.1046,-0.1053,-0.1001,-0.0939,-0.0923,-0.0813,-0.0731,-0.0614,-0.0463,-0.0392,-0.0421,-0.0285,-0.0231,-0.0221,-0.0249,-0.0339,-0.0339,-0.0339,-0.0363,-0.0365,-0.0367,0,0,-0.1182,-0.1174,-0.1156,-0.1113,-0.1059,-0.1021,-0.1004,-0.0937,-0.0889,-0.0782,-0.0724,-0.0598,-0.0447,-0.0336,-0.0262,-0.0078,-0.0199,-0.0007,0.004,-0.0041,-0.0045,-0.0049,-0.0186,-0.0203,0.0012,0.0012,0.0013,0,-0.1174,-0.1153,-0.1134,-0.1093,-0.1053,-0.1009,-0.0958,-0.0889,-0.0789,-0.0737,-0.0741,-0.0481,-0.0385,-0.0189,-0.0102,-0.0046,-0.0152,-0.0077,-0.0036,-0.0041,-0.0046,-0.0186,-0.0205,0.0016,0.0015,0.0015,0.0015,0,-0.1147,-0.1112,-0.1092,-0.1032,-0.0979,-0.0927,-0.0846,-0.0773,-0.0718,-0.0653,-0.048,-0.0354,-0.021,-0.0108,-0.0051,0.0048,-0.0039,-0.0035,-0.0138,-0.0046,-0.0194,-0.0215,0.002,0.0019,0.0018,0.0017,0,0,-0.115,-0.1089,-0.1072,-0.1035,-0.0944,-0.0897,-0.0789,-0.0676,-0.0613,-0.0491,-0.041,-0.0154,-0.0117,-0.0023,0.0085,0.0066,-0.0034,0.0007,0.0002,-0.0213,-0.0295,-0.0324,-0.0352,-0.0069,-0.0071,-0.0073,-0.0399,0,-0.1119,-0.1055,-0.1023,-0.0927,-0.0877,-0.0808,-0.0718,-0.0611,-0.0522,-0.0433,-0.0289,-0.0156,-0.007,0.0008,0.0004,-0.0027,-0.0084,0.0049,-0.0277,-0.0287,-0.0395,-0.0372,-0.0184,-0.0456,-0.042,-0.0424,-0.0426,0,-0.1078,-0.1042,-0.0964,-0.0879,-0.0853,-0.0783,-0.0654,-0.0573,-0.0439,-0.038,-0.0256,-0.0172,-0.0076,-0.0057,-0.0152,-0.0095,-0.0189,-0.0244,-0.0259,-0.0317,-0.0353,-0.0524,-0.0497,-0.0463,-0.046,-0.0457,-0.0455,0,-0.1068,-0.0985,-0.0928,-0.0894,-0.0795,-0.0736,-0.0675,-0.0543,-0.0471,-0.0349,-0.0309,-0.0219,-0.019,-0.0283,-0.034,-0.0285,-0.0558,-0.0503,-0.0627,-0.0634,-0.0548,-0.0542,-0.0628,-0.0627,-0.0627,-0.0626,-0.0625,0,-0.1033,-0.0968,-0.0918,-0.0877,-0.0786,-0.0735,-0.0635,-0.055,-0.0467,-0.0391,-0.0284,-0.025,-0.0259,-0.0365,-0.044,-0.0631,-0.0658,-0.0652,-0.0714,-0.0526,-0.0515,-0.0556,-0.0543,-0.0638,-0.0635,-0.0633,-0.0631,0,-0.0986,-0.0966,-0.0885,-0.0806,-0.0769,-0.07,-0.0608,-0.0545,-0.0483,-0.0401,-0.0362,-0.0339,-0.0499,-0.0557,-0.0754,-0.0768,-0.093,-0.099,-0.0793,-0.0822,-0.0939,-0.092,-0.1176,-0.118,-0.1183,-0.1186,-0.1188,0,-0.095,-0.0912,-0.0827,-0.0768,-0.0713,-0.0632,-0.057,-0.0523,-0.0483,-0.0456,-0.0438,-0.0537,-0.0627,-0.095,-0.0952,-0.114,-0.1136,-0.1091,-0.0887,-0.0959,-0.0994,-0.0969,-0.0946,-0.0785,-0.0784,-0.0783,-0.0782,0,-0.0854,-0.0829,-0.0772,-0.0666,-0.0591,-0.0542,-0.0478,-0.0475,-0.0448,-0.0464,-0.0563,-0.0659,-0.084,-0.0929,-0.1099,-0.116,-0.103,-0.1077,-0.124,-0.0652,-0.0609,-0.0637,-0.0623,-0.0772,-0.0773,-0.0774,-0.0774,-0.0775,-0.0743,-0.0666,-0.0591,-0.0516,-0.0461,-0.043,-0.0436,-0.0444,-0.0484,-0.0529,-0.0668,-0.0777,-0.0792,-0.0958,-0.1016,-0.0994,-0.1068,-0.0997,-0.0992,-0.0991,-0.0863,-0.0825,-0.1011,-0.1013,-0.1015,-0.1017,-0.1018,0,-0.0506,-0.0446,-0.0414,-0.0335,-0.0345,-0.0322,-0.0349,-0.0417,-0.0523,-0.0545,-0.07,-0.0687,-0.0774,-0.0813,-0.0715,-0.076,-0.0658,-0.078,-0.0588,-0.06,-0.061,-0.0453,-0.0498,-0.0497,-0.0496,-0.0495,0,0,-0.0326,-0.022,-0.0265,-0.0243,-0.0231,-0.0253,-0.0302,-0.0408,-0.0453,-0.0565,-0.0576,-0.0691,-0.0701,-0.0527,-0.0546,-0.0494,-0.0529,-0.0478,-0.0885,-0.0661,-0.0669,-0.0727,-0.0501,0,0,0,0,0]},{"header":{"parameterUnit":"m.s-1","parameterCategory":2,"la1":30.2991,"la2":30.254,"lo1":-89.0895,"lo2":-89.0444,"dy":0.0017,"dx":0.0017,"nx":28,"ny":28,"refTime":"2026-02-01T03:00:00:Z","depth":"2","parameterNumber":3,"parameterNumberName":"V-component_of_CURRENTS"},"data":[0,0,0,0,0,0,0,0,0,0,0,0,0,0,0,0,0,0,0,0,0,0,0,0,0,0,0,0,0,0,0,0,0,0,0,0,0,0,0,0,0,0,0,0,0,0,0,0,0,0,0,0,0,0,0,0,0,0,0.0952,0.0952,0,0.0907,0.0907,0.0906,0.0831,0.0829,0.0827,0.0826,0.0761,0.0761,0.0761,0,0,0,0,0,0,0,0,0,0,0,0,0,0.097,0.097,0.0952,0.0952,0.0951,0.0907,0.0907,0.0906,0.0831,0.0829,0.0827,0.0825,0.0761,0.0761,0.0761,0,0,0,0,0,0,0,0,0,0,0,0,0,0.0949,0.097,0.0952,0.0906,0.0901,0.0907,0.0907,0.0906,0.0831,0.0829,0.0826,0.0824,0.0761,0.0761,0.0761,0.0808,0,0,0.076,0.0759,0,0,0,0,0,0,0,0,0.0951,0.0949,0.0914,0.0909,0.0904,0.087,0.0889,0.0871,0.0832,0.0861,0.0826,0.0823,0.0796,0.0792,0.0793,0.0805,0.0802,0.076,0.0759,0.0759,0.0759,0,0,0,0,0,0,0,0.0952,0.0951,0.0937,0.0913,0.0907,0.0886,0.0881,0.0885,0.0844,0.0858,0.0852,0.0843,0.0793,0.0794,0.0791,0.0801,0.076,0.0759,0.0759,0.0759,0.0849,0.0852,0,0,0,0,0,0,0.0956,0.0952,0.0938,0.0935,0.0919,0.0887,0.0881,0.0885,0.0844,0.0835,0.0845,0.084,0.0795,0.0792,0.0788,0.081,0.0759,0.0759,0.0759,0.0847,0.085,0.0853,0,0,0,0,0,0,0.0957,0.0956,0.094,0.094,0.0936,0.0889,0.0894,0.0886,0.0857,0.0835,0.0825,0.0821,0.0793,0.0789,0.0794,0.0808,0.0759,0.0759,0.0844,0.0848,0.0851,0.0874,0,0,0,0,0,0,0.0958,0.0957,0.0958,0.0941,0.0936,0.0943,0.0896,0.0886,0.0856,0.0848,0.0812,0.0805,0.0791,0.0794,0.0793,0.0807,0.0758,0.084,0.0845,0.085,0.087,0.0878,0.0885,0,0,0,0,0,0.0959,0.0975,0.0959,0.0956,0.094,0.0944,0.0941,0.09,0.0857,0.0861,0.084,0.0804,0.0824,0.0796,0.0794,0.0808,0.0838,0.0844,0.085,0.0867,0.0877,0.0885,0,0,0,0,0,0,0.0976,0.0968,0.0949,0.0959,0.095,0.093,0.0924,0.0894,0.088,0.086,0.083,0.0825,0.0841,0.0833,0.0802,0.0856,0.0829,0.0835,0.0843,0.0852,0.086,0.0869,0.0758,0,0,0,0,0,0.0984,0.0996,0.098,0.0987,0.0981,0.0948,0.0939,0.0912,0.0897,0.0885,0.0862,0.0855,0.0873,0.0864,0.088,0.0899,0.0845,0.0914,0.0921,0.0927,0.0939,0.0827,0.0822,0.0872,0.0871,0.0871,0,0,0.0989,0.0988,0.0991,0.0992,0.0976,0.0987,0.0937,0.0923,0.0931,0.0884,0.0885,0.0879,0.0888,0.0917,0.0923,0.09,0.0897,0.0935,0.0939,0.0948,0.0832,0.0826,0.0821,0.0875,0.0875,0.0874,0,0,0.1018,0.1007,0.1025,0.1027,0.101,0.1001,0.0993,0.0968,0.0952,0.0961,0.094,0.095,0.0952,0.0973,0.0982,0.1048,0.0946,0.1041,0.1069,0.0959,0.0952,0.0945,0.0902,0.089,0.1034,0.1034,0.1034,0,0.101,0.1042,0.103,0.1051,0.1051,0.1008,0.1023,0.1022,0.1001,0.1,0.0966,0.0988,0.0992,0.1035,0.1062,0.1063,0.098,0.1022,0.0961,0.0953,0.0945,0.0901,0.0889,0.1036,0.1036,0.1035,0.1035,0,0.1063,0.1077,0.1087,0.1104,0.1111,0.1115,0.111,0.1108,0.1074,0.1065,0.1079,0.1082,0.1085,0.11,0.1098,0.1075,0.103,0.098,0.0919,0.094,0.0896,0.0882,0.1038,0.1038,0.1037,0.1037,0,0,0.104,0.1109,0.1102,0.1116,0.1132,0.1135,0.1169,0.1179,0.1173,0.1164,0.1157,0.1209,0.1168,0.1182,0.1168,0.1095,0.0997,0.1005,0.0998,0.0931,0.0757,0.0737,0.0719,0.0876,0.0873,0.0871,0.0756,0,0.1062,0.1122,0.1153,0.1185,0.1202,0.1202,0.123,0.1238,0.1227,0.1214,0.1215,0.1204,0.121,0.1179,0.1119,0.1011,0.0954,0.1035,0.0775,0.0771,0.072,0.0701,0.067,0.0562,0.0742,0.074,0.0738,0,0.1076,0.1119,0.1163,0.1212,0.1215,0.1219,0.123,0.125,0.1253,0.1239,0.1233,0.1213,0.1179,0.1138,0.0978,0.0997,0.0897,0.0816,0.0807,0.0768,0.0722,0.0568,0.0529,0.0714,0.0716,0.0718,0.0719,0,0.1036,0.1109,0.1142,0.1158,0.1213,0.1206,0.1211,0.1228,0.123,0.1217,0.1196,0.1167,0.1094,0.0971,0.0863,0.0863,0.0648,0.0624,0.0543,0.0543,0.0466,0.0462,0.0504,0.0504,0.0504,0.0505,0.0505,0,0.1033,0.1039,0.1108,0.1112,0.1119,0.1158,0.1133,0.1155,0.1156,0.1137,0.1167,0.1119,0.1017,0.0915,0.0827,0.0644,0.0612,0.0551,0.0494,0.0483,0.0482,0.0573,0.0583,0.05,0.0501,0.0502,0.0503,0,0.0947,0.1012,0.1032,0.1086,0.1087,0.1066,0.1061,0.1049,0.1064,0.1033,0.1019,0.1007,0.0862,0.0819,0.0612,0.0568,0.0426,0.0381,0.0423,0.0373,0.0414,0.0427,0.0262,0.026,0.0258,0.0257,0.0255,0,0.0911,0.0914,0.0967,0.0973,0.0971,0.095,0.093,0.0965,0.0966,0.0948,0.0929,0.083,0.07,0.0477,0.0408,0.0279,0.0343,0.0214,0.0237,0.042,0.0381,0.0397,0.0412,0.0161,0.0159,0.0158,0.0157,0,0.0803,0.0806,0.0831,0.086,0.0841,0.084,0.0821,0.0822,0.0852,0.0824,0.0736,0.0611,0.0434,0.026,0.0165,0.0109,0.0239,0.0177,0.0281,0.0241,0.0317,0.0283,0.0301,0.0143,0.0144,0.0145,0.0146,0.0146,0.0671,0.0644,0.0677,0.0723,0.0737,0.0724,0.0677,0.068,0.0645,0.0548,0.0493,0.0249,0.019,-0.0052,-0.0011,0.0092,0.006,0.0077,0.0084,0.0092,0.0114,0.0183,-0.0008,-0.0008,-0.0007,-0.0007,-0.0006,0,0.0422,0.0445,0.0529,0.0573,0.0617,0.0627,0.0607,0.0538,0.0449,0.0319,0.0139,-0.0033,-0.019,-0.0155,-0.0065,-0.0035,0.0013,0.0036,0.0085,0.0093,0.0102,0.013,0.001,0.0011,0.0012,0.0013,0,0,0.0257,0.0248,0.0361,0.0447,0.049,0.0412,0.037,0.0272,0.0176,-0.0018,-0.0182,-0.0438,-0.0361,-0.0279,-0.0173,-0.007,0.0017,-0.0038,-0.0077,-0.0028,-0.0017,0.0077,0.0122,0,0,0,0,0]}],[{"header":{"parameterUnit":"m.s-1","parameterCategory":2,"la1":30.2991,"la2":30.254,"lo1":-89.0895,"lo2":-89.0444,"dy":0.0017,"dx":0.0017,"nx":28,"ny":28,"refTime":"2026-02-01T03:00:00:Z","depth":"4","parameterNumber":2,"parameterNumberName":"U-component_of_CURRENTS"},"data":[0,0,0,0,0,0,0,0,0,0,0,0,0,0,0,0,0,0,0,0,0,0,0,0,0,0,0,0,0,0,0,0,0,0,0,0,0,0,0,0,0,0,0,0,0,0,0,0,0,0,0,0,0,0,0,0,0,0,-0.0936,-0.0936,0,-0.0937,-0.0937,-0.0937,-0.0939,-0.0939,-0.0939,-0.0939,-0.104,-0.1042,-0.1045,0,0,0,0,0,0,0,0,0,0,0,0,0,-0.0924,-0.0924,-0.0936,-0.0936,-0.0936,-0.0937,-0.0937,-0.0937,-0.0939,-0.0939,-0.0939,-0.0939,-0.1039,-0.1042,-0.1045,0,0,0,0,0,0,0,0,0,0,0,0,0,-0.0927,-0.0924,-0.0936,-0.0937,-0.0937,-0.0937,-0.0937,-0.0937,-0.0939,-0.0939,-0.0939,-0.0939,-0.1038,-0.1042,-0.1046,-0.1068,0,0,-0.1058,-0.1059,0,0,0,0,0,0,0,0,-0.0927,-0.0928,-0.0937,-0.0937,-0.0937,-0.0938,-0.097,-0.0986,-0.0939,-0.0938,-0.0939,-0.0939,-0.1015,-0.1021,-0.1019,-0.1073,-0.1077,-0.1058,-0.106,-0.1062,-0.1063,0,0,0,0,0,0,0,-0.0927,-0.0927,-0.0936,-0.0937,-0.0937,-0.0934,-0.0935,-0.0973,-0.0977,-0.0938,-0.0938,-0.0939,-0.1016,-0.1015,-0.1022,-0.1079,-0.1058,-0.1061,-0.1064,-0.1065,-0.1252,-0.1254,0,0,0,0,0,0,-0.0928,-0.0927,-0.0936,-0.0936,-0.0933,-0.0934,-0.0935,-0.0938,-0.0975,-0.098,-0.0939,-0.0939,-0.1008,-0.1017,-0.1026,-0.1158,-0.1062,-0.1066,-0.1068,-0.1249,-0.1252,-0.1255,0,0,0,0,0,0,-0.0928,-0.0929,-0.0936,-0.0932,-0.0933,-0.0935,-0.0937,-0.0937,-0.095,-0.0975,-0.0982,-0.0952,-0.1009,-0.102,-0.1077,-0.1158,-0.1068,-0.1071,-0.1246,-0.125,-0.1254,-0.1358,0,0,0,0,0,0,-0.0928,-0.0929,-0.094,-0.0932,-0.0933,-0.0945,-0.0937,-0.0937,-0.095,-0.095,-0.0989,-0.0997,-0.101,-0.1071,-0.1081,-0.1162,-0.1074,-0.1243,-0.1248,-0.1252,-0.1351,-0.1365,-0.1376,0,0,0,0,0,-0.0927,-0.0937,-0.0941,-0.0942,-0.0946,-0.0946,-0.0946,-0.0947,-0.095,-0.0959,-0.0991,-0.0997,-0.111,-0.1076,-0.1087,-0.1171,-0.124,-0.1246,-0.1252,-0.1345,-0.1362,-0.1376,0,0,0,0,0,0,-0.0937,-0.0938,-0.0942,-0.0952,-0.0955,-0.0947,-0.0958,-0.0957,-0.0985,-0.0996,-0.1017,-0.1029,-0.1108,-0.1119,-0.1081,-0.1238,-0.1182,-0.119,-0.1249,-0.1265,-0.1277,-0.1288,-0.1078,0,0,0,0,0,-0.0945,-0.0956,-0.0953,-0.0965,-0.0968,-0.0967,-0.0971,-0.0972,-0.0989,-0.1001,-0.1027,-0.1074,-0.1139,-0.1182,-0.1215,-0.1301,-0.1239,-0.1366,-0.1378,-0.1389,-0.1405,-0.1324,-0.1329,-0.1274,-0.1274,-0.1274,0,0,-0.0954,-0.0957,-0.0964,-0.0969,-0.0973,-0.0982,-0.097,-0.0982,-0.1004,-0.1012,-0.1061,-0.1106,-0.1163,-0.1255,-0.1296,-0.1282,-0.1378,-0.1397,-0.1406,-0.1416,-0.133,-0.1335,-0.1339,-0.1278,-0.1277,-0.1277,0,0,-0.0966,-0.098,-0.0988,-0.0992,-0.1,-0.1005,-0.1012,-0.1015,-0.1035,-0.1085,-0.1113,-0.1205,-0.1271,-0.1349,-0.1397,-0.1501,-0.1429,-0.1521,-0.1621,-0.1542,-0.1545,-0.1547,-0.1485,-0.148,-0.1549,-0.1549,-0.155,0,-0.0979,-0.0986,-0.0991,-0.0997,-0.1004,-0.1018,-0.1025,-0.1053,-0.1078,-0.1115,-0.1113,-0.1259,-0.1325,-0.1464,-0.1535,-0.1535,-0.1461,-0.156,-0.1555,-0.1555,-0.1555,-0.1491,-0.1484,-0.1555,-0.1554,-0.1554,-0.1553,0,-0.0984,-0.0999,-0.1006,-0.1023,-0.1032,-0.1045,-0.1072,-0.1117,-0.1152,-0.1178,-0.1292,-0.1375,-0.1488,-0.1533,-0.159,-0.1671,-0.1608,-0.1556,-0.1507,-0.1566,-0.1496,-0.1487,-0.1563,-0.1561,-0.156,-0.1558,0,0,-0.0982,-0.1006,-0.101,-0.1027,-0.1046,-0.1058,-0.1122,-0.1181,-0.1242,-0.13,-0.1368,-0.1554,-0.1617,-0.1679,-0.1756,-0.1733,-0.172,-0.1677,-0.167,-0.1602,-0.1533,-0.149,-0.1475,-0.1634,-0.1633,-0.1632,-0.1487,0,-0.0986,-0.1001,-0.1013,-0.1049,-0.1058,-0.1106,-0.1165,-0.1229,-0.129,-0.136,-0.1473,-0.1583,-0.1666,-0.1766,-0.1763,-0.1705,-0.1699,-0.1764,-0.15,-0.1494,-0.1435,-0.1465,-0.1629,-0.148,-0.1478,-0.1476,-0.1475,0,-0.0978,-0.0991,-0.1012,-0.1073,-0.1086,-0.1128,-0.1233,-0.1284,-0.1395,-0.1463,-0.1589,-0.1649,-0.1765,-0.1771,-0.1716,-0.1736,-0.169,-0.1611,-0.1601,-0.1519,-0.1434,-0.1408,-0.1458,-0.1459,-0.146,-0.1461,-0.1463,0,-0.0958,-0.0998,-0.102,-0.1032,-0.1098,-0.116,-0.1222,-0.1326,-0.1392,-0.1544,-0.1592,-0.1697,-0.1742,-0.1681,-0.1657,-0.1665,-0.1473,-0.1446,-0.136,-0.1355,-0.1386,-0.1385,-0.1386,-0.1386,-0.1386,-0.1387,-0.1387,0,-0.0943,-0.0969,-0.103,-0.1044,-0.1115,-0.1163,-0.1268,-0.1366,-0.1475,-0.1529,-0.1667,-0.17,-0.1704,-0.1632,-0.1599,-0.1454,-0.1443,-0.1383,-0.1314,-0.1438,-0.1445,-0.1379,-0.138,-0.1381,-0.1382,-0.1383,-0.1384,0,-0.0911,-0.0944,-0.0981,-0.1064,-0.1104,-0.1159,-0.1299,-0.1367,-0.1486,-0.1546,-0.161,-0.1663,-0.1575,-0.1545,-0.1403,-0.1365,-0.1245,-0.121,-0.1361,-0.1301,-0.1191,-0.12,-0.1071,-0.1068,-0.1066,-0.1064,-0.1062,0,-0.0893,-0.0903,-0.0987,-0.102,-0.1069,-0.117,-0.1238,-0.1385,-0.1442,-0.1501,-0.15,-0.1476,-0.1502,-0.1227,-0.1232,-0.1135,-0.1145,-0.1095,-0.1173,-0.1213,-0.1159,-0.1171,-0.1183,-0.1059,-0.1058,-0.1057,-0.1057,0,-0.085,-0.0887,-0.0923,-0.0986,-0.1059,-0.1131,-0.1235,-0.1275,-0.1392,-0.1478,-0.1387,-0.1351,-0.1218,-0.1138,-0.1089,-0.1031,-0.1125,-0.1071,-0.1077,-0.1149,-0.1196,-0.1148,-0.1162,-0.1049,-0.105,-0.1051,-0.1051,0,-0.0823,-0.0844,-0.0892,-0.095,-0.1026,-0.1066,-0.1136,-0.117,-0.1231,-0.1297,-0.1234,-0.118,-0.1168,-0.108,-0.1021,-0.0978,-0.0974,-0.0962,-0.0973,-0.0982,-0.1032,-0.1085,-0.0844,0,0,0,0,0,-0.0764,-0.0791,-0.0851,-0.0907,-0.0975,-0.1011,-0.1113,-0.1175,-0.1262,-0.1165,-0.1214,-0.1112,-0.1018,-0.0988,-0.0922,-0.1011,-0.1,-0.0937,-0.0998,-0.1005,-0.1014,-0.1089,0,0,0,0,0,0,-0.0736,-0.0773,-0.0825,-0.0853,-0.0878,-0.094,-0.0995,-0.1045,-0.1013,-0.1077,-0.1012,-0.1058,-0.0966,-0.1014,-0.0891,-0.0894,-0.0918,-0.0928,-0.0927,-0.0999,-0.1008,-0.1015,-0.1096,0,0,0,0,0]},{"header":{"parameterUnit":"m.s-1","parameterCategory":2,"la1":30.2991,"la2":30.254,"lo1":-89.0895,"lo2":-89.0444,"dy":0.0017,"dx":0.0017,"nx":28,"ny":28,"refTime":"2026-02-01T03:00:00:Z","depth":"4","parameterNumber":3,"parameterNumberName":"V-component_of_CURRENTS"},"data":[0,0,0,0,0,0,0,0,0,0,0,0,0,0,0,0,0,0,0,0,0,0,0,0,0,0,0,0,0,0,0,0,0,0,0,0,0,0,0,0,0,0,0,0,0,0,0,0,0,0,0,0,0,0,0,0,0,0,0.0351,0.0351,0,0.0352,0.0352,0.0352,0.039,0.0391,0.0392,0.0393,0.0456,0.0457,0.0457,0,0,0,0,0,0,0,0,0,0,0,0,0,0.0354,0.0354,0.0351,0.0351,0.035,0.0352,0.0352,0.0352,0.039,0.0391,0.0392,0.0393,0.0456,0.0457,0.0458,0,0,0,0,0,0,0,0,0,0,0,0,0,0.0354,0.0354,0.0351,0.0369,0.0371,0.0352,0.0352,0.0352,0.039,0.0391,0.0393,0.0394,0.0455,0.0456,0.0458,0.0438,0,0,0.0461,0.0462,0,0,0,0,0,0,0,0,0.0354,0.0354,0.0366,0.0368,0.0369,0.0372,0.0376,0.0384,0.039,0.0384,0.0393,0.0395,0.0432,0.0435,0.0433,0.0441,0.0444,0.0462,0.0462,0.0463,0.0463,0,0,0,0,0,0,0,0.0354,0.0354,0.0352,0.0366,0.0368,0.0368,0.037,0.0377,0.0402,0.0384,0.0387,0.0385,0.0433,0.0431,0.0435,0.0445,0.0462,0.0463,0.0463,0.0464,0.0437,0.0436,0,0,0,0,0,0,0.0352,0.0354,0.0352,0.0352,0.0364,0.0367,0.0369,0.037,0.0401,0.0406,0.0384,0.0387,0.0428,0.0433,0.0437,0.0428,0.0463,0.0464,0.0465,0.0439,0.0437,0.0435,0,0,0,0,0,0,0.0352,0.0352,0.0352,0.0352,0.0352,0.0365,0.0366,0.037,0.0371,0.0399,0.0406,0.0383,0.043,0.0435,0.0445,0.043,0.0465,0.0466,0.044,0.0438,0.0436,0.0402,0,0,0,0,0,0,0.0352,0.0352,0.0357,0.0352,0.0352,0.0333,0.0365,0.0369,0.0367,0.0371,0.04,0.0408,0.0431,0.0442,0.0446,0.0433,0.0467,0.0442,0.0439,0.0437,0.0405,0.0399,0.0393,0,0,0,0,0,0.0353,0.0347,0.0357,0.0357,0.0357,0.0332,0.0331,0.0346,0.0366,0.0355,0.0382,0.0407,0.0427,0.0443,0.0447,0.0434,0.0443,0.044,0.0437,0.0407,0.04,0.0393,0,0,0,0,0,0,0.035,0.035,0.0361,0.0357,0.0343,0.0338,0.0335,0.034,0.035,0.0365,0.0395,0.0403,0.0408,0.0416,0.0432,0.0414,0.0436,0.0433,0.0412,0.0405,0.0399,0.0428,0.0468,0,0,0,0,0,0.035,0.035,0.0342,0.0338,0.0332,0.0333,0.0328,0.0333,0.0339,0.0345,0.0359,0.0377,0.0393,0.0397,0.0411,0.0398,0.0381,0.0388,0.0382,0.0377,0.0401,0.0304,0.0291,0.0424,0.0424,0.0425,0,0,0.0349,0.0349,0.035,0.0337,0.0335,0.0313,0.0334,0.0321,0.031,0.035,0.0343,0.0364,0.0387,0.0383,0.0383,0.039,0.0333,0.0373,0.0369,0.0396,0.0299,0.0286,0.0274,0.0422,0.0423,0.0423,0,0,0.0332,0.0343,0.0333,0.0314,0.0304,0.0302,0.0295,0.0282,0.0288,0.0278,0.0311,0.0315,0.0327,0.0337,0.0348,0.0311,0.0312,0.0314,0.0306,0.0209,0.0198,0.0188,0.0164,0.0152,0.0303,0.0303,0.0303,0,0.0332,0.0319,0.0323,0.0297,0.0282,0.0293,0.0266,0.0266,0.0256,0.027,0.0273,0.0289,0.0304,0.0309,0.031,0.03,0.0273,0.0333,0.0202,0.0191,0.0181,0.0159,0.0146,0.0301,0.0301,0.0301,0.0301,0,0.0297,0.0287,0.0274,0.0254,0.0233,0.0212,0.0205,0.0206,0.0218,0.0225,0.0231,0.0234,0.0251,0.0242,0.028,0.0228,0.0243,0.021,0.0221,0.0165,0.0146,0.0133,0.0298,0.0299,0.0299,0.03,0,0,0.0295,0.0261,0.0255,0.0245,0.021,0.0195,0.0184,0.0186,0.0201,0.0187,0.0182,0.0204,0.0222,0.0235,0.0248,0.018,0.0094,0.0179,0.0175,0.0163,-0.0069,-0.0032,-0.0042,0.0027,0.0024,0.0022,-0.0048,0,0.027,0.0228,0.021,0.0172,0.0152,0.0154,0.0144,0.0151,0.0164,0.0161,0.0169,0.017,0.0211,0.0214,0.0157,0.0107,0.0057,0.0121,-0.0017,-0.0019,0.0023,-0.0059,0.0013,-0.0057,-0.006,-0.0063,-0.0064,0,0.0238,0.0218,0.0177,0.0155,0.0147,0.013,0.014,0.0128,0.0144,0.0159,0.0165,0.0165,0.0126,0.0128,0.0019,0.0057,0.0016,-0.0035,-0.0041,0.0003,-0.0008,0.0004,-0.0088,-0.0086,-0.0084,-0.0082,-0.0081,0,0.0241,0.0197,0.0175,0.0156,0.0128,0.0133,0.0131,0.0143,0.0143,0.0152,0.0137,0.0111,0.0058,-0.001,-0.0065,-0.0042,-0.0214,-0.0216,-0.021,-0.0206,-0.0198,-0.0186,-0.0306,-0.0306,-0.0306,-0.0306,-0.0306,0,0.0217,0.0201,0.0185,0.0167,0.016,0.0138,0.0141,0.0156,0.0147,0.0129,0.0135,0.0084,0.0007,-0.0083,-0.0107,-0.0193,-0.0256,-0.0208,-0.024,-0.0207,-0.0196,-0.0206,-0.0193,-0.0309,-0.0308,-0.0308,-0.0307,0,0.0214,0.0199,0.0178,0.0161,0.0159,0.0156,0.014,0.0142,0.014,0.01,0.0089,0.0021,-0.0096,-0.0151,-0.029,-0.0269,-0.0345,-0.0353,-0.0275,-0.0302,-0.0246,-0.0235,-0.0354,-0.0353,-0.0353,-0.0353,-0.0353,0,0.02,0.0193,0.0178,0.0176,0.017,0.0165,0.0158,0.0152,0.0141,0.0054,0.002,-0.0101,-0.0142,-0.0308,-0.0347,-0.0396,-0.0386,-0.0384,-0.0323,-0.024,-0.026,-0.0249,-0.0238,-0.0352,-0.0352,-0.0352,-0.0352,0,0.0185,0.0195,0.0189,0.019,0.0184,0.0154,0.0142,0.0125,0.0089,0.0068,-0.0057,-0.0124,-0.0256,-0.0334,-0.0374,-0.0402,-0.0368,-0.0381,-0.0381,-0.0323,-0.024,-0.0258,-0.0247,-0.0351,-0.0351,-0.0351,-0.0351,0,0.0193,0.0198,0.0213,0.0215,0.0201,0.0157,0.0133,0.0083,0.0052,-0.0036,-0.0095,-0.0213,-0.0293,-0.034,-0.0384,-0.0403,-0.0382,-0.0337,-0.0339,-0.034,-0.0298,-0.0188,-0.0322,0,0,0,0,0,0.0208,0.0236,0.0235,0.0227,0.0205,0.0178,0.0136,0.0105,0.005,-0.0039,-0.006,-0.0174,-0.0263,-0.032,-0.0338,-0.0343,-0.0359,-0.0354,-0.0301,-0.0346,-0.0347,-0.0295,0,0,0,0,0,0,0.0233,0.025,0.0253,0.0246,0.022,0.0173,0.0126,0.0066,0.002,-0.004,-0.011,-0.0136,-0.0241,-0.0271,-0.0335,-0.0341,-0.0294,-0.0403,-0.0401,-0.0346,-0.0346,-0.0347,-0.0294,0,0,0,0,0]}]]